This is the latest recevied weather packets stored in our database for station/object N4NVD-13. If no packets are shown the sender has not sent any weather packets the latest 10 day(s).
| Time | Temp. | Humidity | Pressure | Rain* | Wind** | Luminosity | Snow |
|---|---|---|---|---|---|---|---|
| 1778014058 | 29.44° C | 80% | 1006 hPa | 0 mm | - | 297 W/m² | - |
| 1778013756 | 28.89° C | 80% | 1005.9 hPa | 0 mm | - | 608 W/m² | - |
| 1778013453 | 28.89° C | 80% | 1006.1 hPa | 0 mm | - | 314 W/m² | - |
| 1778013150 | 28.33° C | 81% | 1006.2 hPa | 0 mm | - | 449 W/m² | - |
| 1778012846 | 28.89° C | 81% | 1006.1 hPa | 0 mm | - | 323 W/m² | - |
| 1778012542 | 29.44° C | 82% | 1006.2 hPa | 0 mm | - | 680 W/m² | - |
| 1778012239 | 28.89° C | 81% | 1006.4 hPa | 0 mm | - | 247 W/m² | - |
| 1778011937 | 28.33° C | 82% | 1006.2 hPa | 0 mm | - | 388 W/m² | - |
| 1778011634 | 28.33° C | 81% | 1006.4 hPa | 0 mm | - | 265 W/m² | - |
| 1778011331 | 28.33° C | 81% | 1006.5 hPa | 0 mm | - | 494 W/m² | - |
| 1778011027 | 28.33° C | 82% | 1006.6 hPa | 0 mm | - | 237 W/m² | - |
| 1778010724 | 28.33° C | 82% | 1006.7 hPa | 0 mm | - | 609 W/m² | - |
| 1778010421 | 28.33° C | 82% | 1006.6 hPa | 0 mm | - | 283 W/m² | - |
| 1778010117 | 28.33° C | 82% | 1006.7 hPa | 0 mm | - | 453 W/m² | - |
| 1778009814 | 28.33° C | 83% | 1006.9 hPa | 0 mm | - | 369 W/m² | - |
| 1778009511 | 28.33° C | 84% | 1006.9 hPa | 0 mm | - | 395 W/m² | - |
| 1778009210 | 27.78° C | 83% | 1006.9 hPa | 0 mm | - | 438 W/m² | - |
| 1778008907 | 27.78° C | 84% | 1006.8 hPa | 0 mm | - | 267 W/m² | - |
| 1778008605 | 28.89° C | 82% | 1007 hPa | 0 mm | - | 510 W/m² | - |
| 1778008303 | 27.78° C | 84% | 1006.9 hPa | 0 mm | - | 339 W/m² | - |
| 1778007999 | 27.78° C | 82% | 1007.1 hPa | 0 mm | - | 431 W/m² | - |
| 1778007699 | 27.78° C | 83% | 1006.9 hPa | 0 mm | - | 465 W/m² | - |
| 1778007396 | 27.78° C | 82% | 1007.1 hPa | 0 mm | - | 427 W/m² | - |
| 1778007092 | 27.78° C | 82% | 1007.2 hPa | 0 mm | - | 624 W/m² | - |
| 1778006789 | 27.22° C | 85% | 1007.2 hPa | 0 mm | - | 472 W/m² | - |
* Rain latest hour (hover to see other rain measurements)
** Current wind speed in m/s (hover to see current wind gust speed)